FENGYUN 1C DEB

Satellite information

Favourite Embed

Satellite Type and Status

DEBRISIN ORBIT

Key statistics

Satellite FENGYUN 1C DEB at a glance.

Uptime

9715

Days in orbit

Revolutions

≈ 14.7

Per day

Orbit

SSO

Sun Synchronous Orbit

Inclination

98.9

Latest

Satellite identification and parameters

Extended collection of information and parameters for FENGYUN 1C DEB.

Object identification

Identified? True

Debris? True

Object name: FENGYUN 1C DEB

International designator: 1999-025BHW

Object number (NORAD): 31168

Object ID (CCSDS): 31168

Country: PEOPLES REPUBLIC OF CHINA (PRC)

Current information (Y/N): Y

RCS size: SMALL

Orbital parameters

Period: 98.136 minutes

Inclination: 98.8902 deg

SMA: 7047.652 km

Apoapsis: 746.18 km

Periapsis: 592.854 km

RAAN: 118.6121 deg

Eccentricy: 0.01087774

Argument of periapsis: 61.8313 deg

Mean anomaly: 299.3827 deg

Mean motion: 14.67358018 rev/day

Mean motion (dot): 0.00006934 rev/day2

B* drag term: 0.0011320271 1/REarth

Two-line elements (TLE)

Creation date: Dec. 13, 2025, 5:47 p.m.

Reference frame: TEME

Reference center: EARTH

Epoch: Dec. 13, 2025, 7:35 a.m. UTC

TLE line 0: 0 FENGYUN 1C DEB

TLE line 1: 1 31168U 99025BHW 25347.31640247 .00006934 00000-0 11320-2 0 9993

TLE line 2: 2 31168 98.8902 118.6121 0108777 61.8313 299.3827 14.67358018991292

Live tracking on map

Real-time ground track for satellite FENGYUN 1C DEB.

In-orbit conjunctions

A list of the most updated potential collisions computed for object FENGYUN 1C DEB.

Target Orbit TCA Probability of collision Miss distance Type
CZ-6A DEB SSO 2025-07-16 19:32:20 0.0001316959 41.0 (m) DEBRIS
SL-8 R/B LEO 2024-06-04 21:45:41 0.0001843903 133.0 (m) ROCKET BODY

Associated space launch

Chinese polar orbiting meteorological satellite

FENGYUN 1C DEB was lifted into orbit during the mission ‘Long March 4B | Feng Yun 1C’, on board a Long March 4B space rocket.

The launch took place on May 10, 1999, 1:33 a.m. from Launch Complex 7.

For more information about the launch, click the button.

Launch to space Long March 4B | Feng Yun 1C
Long March 4B | Feng Yun 1C

Agency: N/A

Status: Launch Successful

Launch date: May 10, 1999, 1:33 a.m. UTC

Rocket: Long March 4B

Launch pad: Launch Complex 7

Location: Taiyuan Satellite Launch Center, People's Republic of China

...

Latest news about this satellite

There are no fresh news available about this satellite. Check back as we update our databases every day.


Newsletter sign-up

Weekly statistics, charts and insights to help you stay on top of the space industry.